Location: C�mpuri de-Sus
(45.9500°N, 22.5500°E)
Time: 17:40:18
(UTC+00:00)

Cosmos 839 Rocket - Pass Details

Date: 10 December 2023
Orbit: 960 x 2093 km, 65.9° (Epoch: 20 February)

Event Time Altitude Azimuth Distance (km) Brightness Sun altitude
Exits shadow 05:21:10 - 303° (WNW) 4,829 6.9 -6.7°
Reaches altitude 10° 05:22:30 10° 307° (NW) 4,534 6.8 -6.5°
Maximum altitude 05:32:01 27° 1° (N) 3,166 6.4 -5.0°
Drops below altitude 10° 05:40:24 10° 55° (NE) 3,969 7.5 -3.8°
Sets 05:44:03 0° 68° (ENE) 4,780 8.2 -3.2°
